TimeCDT,TemperatureF,Dew PointF,Humidity,Sea Level PressureIn,VisibilityMPH,Wind Direction,Wind SpeedMPH,Gust SpeedMPH,PrecipitationIn,Events,Conditions,WindDirDegrees,DateUTC
12:53 AM,75.9,57.0,52,29.96,10.0,SE,10.4,-,N/A,,Clear,140,2013-09-06 05:53:00
1:53 AM,75.0,55.9,51,29.96,10.0,SE,8.1,-,N/A,,Clear,140,2013-09-06 06:53:00
2:53 AM,73.9,55.0,52,29.96,10.0,SSE,8.1,-,N/A,,Clear,150,2013-09-06 07:53:00
3:53 AM,72.0,53.1,51,29.95,10.0,SE,6.9,-,N/A,,Clear,140,2013-09-06 08:53:00
4:53 AM,64.9,54.0,68,29.95,10.0,ESE,6.9,-,N/A,,Clear,110,2013-09-06 09:53:00
5:53 AM,61.0,55.0,81,29.96,10.0,East,5.8,-,N/A,,Clear,100,2013-09-06 10:53:00
6:53 AM,59.0,55.0,87,29.97,10.0,East,5.8,-,N/A,,Clear,100,2013-09-06 11:53:00
7:53 AM,60.1,55.0,83,29.96,9.0,East,4.6,-,N/A,,Clear,100,2013-09-06 12:53:00
8:53 AM,66.9,55.9,68,29.96,10.0,ESE,3.5,-,N/A,,Clear,120,2013-09-06 13:53:00
9:53 AM,75.0,55.0,50,29.95,10.0,South,5.8,-,N/A,,Clear,170,2013-09-06 14:53:00
10:53 AM,82.0,57.0,42,29.94,10.0,SSE,3.5,-,N/A,,Clear,150,2013-09-06 15:53:00
11:53 AM,91.0,54.0,28,29.91,10.0,SSW,6.9,-,N/A,,Clear,210,2013-09-06 16:53:00
12:53 PM,96.1,55.9,26,29.89,10.0,South,5.8,-,N/A,,Clear,170,2013-09-06 17:53:00
1:53 PM,99.0,55.9,24,29.87,10.0,South,9.2,-,N/A,,Clear,180,2013-09-06 18:53:00
2:53 PM,102.0,51.1,18,29.84,10.0,WSW,15.0,-,N/A,,Clear,240,2013-09-06 19:53:00
3:53 PM,102.9,50.0,17,29.83,10.0,SSW,10.4,-,N/A,,Clear,210,2013-09-06 20:53:00
4:53 PM,102.9,50.0,17,29.81,10.0,WSW,11.5,-,N/A,,Clear,240,2013-09-06 21:53:00
5:53 PM,100.0,54.0,21,29.81,10.0,SW,5.8,-,N/A,,Clear,230,2013-09-06 22:53:00
6:53 PM,95.0,59.0,30,29.81,10.0,SSW,3.5,-,N/A,,Clear,210,2013-09-06 23:53:00
7:53 PM,91.0,55.0,29,29.81,10.0,South,8.1,-,N/A,,Clear,170,2013-09-07 00:53:00
8:53 PM,88.0,51.1,28,29.81,10.0,South,9.2,-,N/A,,Clear,170,2013-09-07 01:53:00
9:53 PM,87.1,48.0,26,29.83,10.0,South,11.5,-,N/A,,Clear,180,2013-09-07 02:53:00
10:53 PM,82.9,48.0,29,29.85,10.0,WSW,8.1,-,N/A,,Clear,240,2013-09-07 03:53:00
11:53 PM,75.0,52.0,44,29.86,10.0,West,5.8,-,N/A,,Clear,260,2013-09-07 04:53:00